| State | Missouri | Latest | Unknown (255 cfs) | |
| River | Huzzah Creek | Rating | Observed | Estimated |
| Updated | 2026-05-10 11:30 (25 minutes ago) | Flood - The river is flooding. Obstacles can be treacherous or deadly. The river should be avoided at this stage for casual trips and definitely for the inexperienced. Trips should be attempted only with protective gear and equipment.Flood | (none) | (none) |
| Discharge | 255 cfs (median: 438 cfs) | High - The river is high and potentially dangerous, especially for the young and / or inexperienced. Normal stream obstacles are sometimes difficult to navigate. Extended distances can be attempted, but canoe travel may not be advisable.High | (none) | (none) |
| Height | 4.06 feet | Good - Conditions are ideal for a canoe or kayak. Boats typically will drag on fewer than one-quarter of riffles, if at all, and portages are unnecessary or rare. Normal float lengths can be attempted without a problem.Good | (none) | (none) |
| Trend | Falling (falling over 24 hours) | Low - River is low but can still be floated. Some riffles are okay but most come with significant dragging and might need a portage. Float lengths should be reduced to accommodate low flow, dragging, and portages.Low | (none) | (none) |
| USGS | USGS Site ( Duck Duck Go Maps) | Poor - River is too low to float comfortably. Most or all riffles will drag or must be portaged and some obstacles (such as slick shelf rock) cause undue problems. Avoid the river at this stage for casual paddling trips.Poor | (none) | (none) |
A total of 3 rows are displayed.
| Miles | 4.4 |
| Trips | 3 |
| People | 17 |
| Dates | 3 |
| Years | 2 |
| Months | 2 |
| Rows | 3 |
| Sources | 2 |
BLG - Bluegill
CCF - Channel Catfish
CP - Chain Pickerel
FWD - Freshwater Drum
GSF - Green Sunfish
KSB - Kentucky Spotted Bass
LMB - Largemouth Bass
LSF - Longear Sunfish
RB - Rock Bass / Goggle Eye
RSF - Redear Sunfish
RT - Rainbow Trout
SMB - Smallmouth Bass
WB - White Bass
WF - Whitefish
WL - WalleyeThe classic River Trips application is still available for use. It is updated with the new system using a data retrofit. It is no longer maintained. The original River Trips application is no longer updated (as of 1 Dec 2016) but can be checked for errors or for the condition of the data before it was converted to the new system.
| Observation | Height | Discharge | Maximum Discharge | Minimum Discharge | Mean Discharge | P05 | P10 | P20 | P25 | P50 (Median) | P75 | P80 | P90 | P95 |
|---|---|---|---|---|---|---|---|---|---|---|---|---|---|---|
| 2026-05-10 11:30 | 4.06 | 255 | 1420 (2009) | 93 (2012) | 490 | 93 | 118 | 228 | 284 | 438 | 640 | 656 | 1080 | 1420 |
| 2026-05-10 10:30 | 4.07 | 259 | 1420 (2009) | 93 (2012) | 490 | 93 | 118 | 228 | 284 | 438 | 640 | 656 | 1080 | 1420 |
| 2026-05-10 09:30 | 4.07 | 259 | 1420 (2009) | 93 (2012) | 490 | 93 | 118 | 228 | 284 | 438 | 640 | 656 | 1080 | 1420 |
| 2026-05-10 08:30 | 4.09 | 266 | 1420 (2009) | 93 (2012) | 490 | 93 | 118 | 228 | 284 | 438 | 640 | 656 | 1080 | 1420 |
| 2026-05-10 07:30 | 4.09 | 266 | 1420 (2009) | 93 (2012) | 490 | 93 | 118 | 228 | 284 | 438 | 640 | 656 | 1080 | 1420 |
| 2026-05-10 06:30 | 4.09 | 266 | 1420 (2009) | 93 (2012) | 490 | 93 | 118 | 228 | 284 | 438 | 640 | 656 | 1080 | 1420 |
| 2026-05-10 05:30 | 4.10 | 270 | 1420 (2009) | 93 (2012) | 490 | 93 | 118 | 228 | 284 | 438 | 640 | 656 | 1080 | 1420 |
| 2026-05-10 04:30 | 4.12 | 277 | 1420 (2009) | 93 (2012) | 490 | 93 | 118 | 228 | 284 | 438 | 640 | 656 | 1080 | 1420 |
| 2026-05-10 03:30 | 4.13 | 281 | 1420 (2009) | 93 (2012) | 490 | 93 | 118 | 228 | 284 | 438 | 640 | 656 | 1080 | 1420 |
| 2026-05-10 02:30 | 4.13 | 281 | 1420 (2009) | 93 (2012) | 490 | 93 | 118 | 228 | 284 | 438 | 640 | 656 | 1080 | 1420 |
| 2026-05-10 01:30 | 4.14 | 285 | 1420 (2009) | 93 (2012) | 490 | 93 | 118 | 228 | 284 | 438 | 640 | 656 | 1080 | 1420 |
| 2026-05-10 00:30 | 4.15 | 289 | 1420 (2009) | 93 (2012) | 490 | 93 | 118 | 228 | 284 | 438 | 640 | 656 | 1080 | 1420 |
| 2026-05-09 23:30 | 4.16 | 293 | 1420 (2009) | 93 (2012) | 490 | 93 | 118 | 228 | 284 | 438 | 640 | 656 | 1080 | 1420 |
| 2026-05-09 22:30 | 4.18 | 301 | 5620 (2009) | 98 (2012) | 763 | 98 | 111 | 228 | 304 | 492 | 700 | 804 | 1050 | 5620 |
| 2026-05-09 21:30 | 4.19 | 305 | 5620 (2009) | 98 (2012) | 763 | 98 | 111 | 228 | 304 | 492 | 700 | 804 | 1050 | 5620 |
| 2026-05-09 20:30 | 4.19 | 305 | 5620 (2009) | 98 (2012) | 763 | 98 | 111 | 228 | 304 | 492 | 700 | 804 | 1050 | 5620 |
| 2026-05-09 19:30 | 4.21 | 312 | 5620 (2009) | 98 (2012) | 763 | 98 | 111 | 228 | 304 | 492 | 700 | 804 | 1050 | 5620 |
| 2026-05-09 18:30 | 4.20 | 308 | 5620 (2009) | 98 (2012) | 763 | 98 | 111 | 228 | 304 | 492 | 700 | 804 | 1050 | 5620 |
| 2026-05-09 17:30 | 4.22 | 316 | 5620 (2009) | 98 (2012) | 763 | 98 | 111 | 228 | 304 | 492 | 700 | 804 | 1050 | 5620 |
| 2026-05-09 16:30 | 4.23 | 321 | 5620 (2009) | 98 (2012) | 763 | 98 | 111 | 228 | 304 | 492 | 700 | 804 | 1050 | 5620 |
| 2026-05-09 15:30 | 4.23 | 321 | 5620 (2009) | 98 (2012) | 763 | 98 | 111 | 228 | 304 | 492 | 700 | 804 | 1050 | 5620 |
| 2026-05-09 14:30 | 4.23 | 321 | 5620 (2009) | 98 (2012) | 763 | 98 | 111 | 228 | 304 | 492 | 700 | 804 | 1050 | 5620 |
| 2026-05-09 13:30 | 4.23 | 321 | 5620 (2009) | 98 (2012) | 763 | 98 | 111 | 228 | 304 | 492 | 700 | 804 | 1050 | 5620 |
| 2026-05-09 12:30 | 4.22 | 316 | 5620 (2009) | 98 (2012) | 763 | 98 | 111 | 228 | 304 | 492 | 700 | 804 | 1050 | 5620 |
| 2026-05-09 11:30 | 4.20 | 308 | 5620 (2009) | 98 (2012) | 763 | 98 | 111 | 228 | 304 | 492 | 700 | 804 | 1050 | 5620 |
| 2026-05-09 10:30 | 4.15 | 289 | 5620 (2009) | 98 (2012) | 763 | 98 | 111 | 228 | 304 | 492 | 700 | 804 | 1050 | 5620 |
| 2026-05-09 09:30 | 4.11 | 274 | 5620 (2009) | 98 (2012) | 763 | 98 | 111 | 228 | 304 | 492 | 700 | 804 | 1050 | 5620 |
| 2026-05-09 08:30 | 4.06 | 255 | 5620 (2009) | 98 (2012) | 763 | 98 | 111 | 228 | 304 | 492 | 700 | 804 | 1050 | 5620 |
| 2026-05-09 07:30 | 4.00 | 234 | 5620 (2009) | 98 (2012) | 763 | 98 | 111 | 228 | 304 | 492 | 700 | 804 | 1050 | 5620 |
| 2026-05-09 06:30 | 3.97 | 224 | 5620 (2009) | 98 (2012) | 763 | 98 | 111 | 228 | 304 | 492 | 700 | 804 | 1050 | 5620 |
| 2026-05-09 05:30 | 3.93 | 214 | 5620 (2009) | 98 (2012) | 763 | 98 | 111 | 228 | 304 | 492 | 700 | 804 | 1050 | 5620 |
| 2026-05-09 04:30 | 3.89 | 203 | 5620 (2009) | 98 (2012) | 763 | 98 | 111 | 228 | 304 | 492 | 700 | 804 | 1050 | 5620 |
| 2026-05-09 03:30 | 3.88 | 201 | 5620 (2009) | 98 (2012) | 763 | 98 | 111 | 228 | 304 | 492 | 700 | 804 | 1050 | 5620 |
| 2026-05-09 02:30 | 3.88 | 201 | 5620 (2009) | 98 (2012) | 763 | 98 | 111 | 228 | 304 | 492 | 700 | 804 | 1050 | 5620 |
| 2026-05-09 01:30 | 3.87 | 198 | 5620 (2009) | 98 (2012) | 763 | 98 | 111 | 228 | 304 | 492 | 700 | 804 | 1050 | 5620 |
| 2026-05-09 00:30 | 3.86 | 196 | 5620 (2009) | 98 (2012) | 763 | 98 | 111 | 228 | 304 | 492 | 700 | 804 | 1050 | 5620 |
| 2026-05-08 23:30 | 3.85 | 193 | 5620 (2009) | 98 (2012) | 763 | 98 | 111 | 228 | 304 | 492 | 700 | 804 | 1050 | 5620 |
| 2026-05-08 22:30 | 3.83 | 188 | 6740 (2009) | 101 (2012) | 814 | 101 | 111 | 159 | 238 | 375 | 872 | 894 | 1150 | 6740 |
| 2026-05-08 21:30 | 3.80 | 181 | 6740 (2009) | 101 (2012) | 814 | 101 | 111 | 159 | 238 | 375 | 872 | 894 | 1150 | 6740 |
| 2026-05-08 20:30 | 3.80 | 181 | 6740 (2009) | 101 (2012) | 814 | 101 | 111 | 159 | 238 | 375 | 872 | 894 | 1150 | 6740 |
| 2026-05-08 19:30 | 3.81 | 184 | 6740 (2009) | 101 (2012) | 814 | 101 | 111 | 159 | 238 | 375 | 872 | 894 | 1150 | 6740 |
| 2026-05-08 18:30 | 3.81 | 184 | 6740 (2009) | 101 (2012) | 814 | 101 | 111 | 159 | 238 | 375 | 872 | 894 | 1150 | 6740 |
| 2026-05-08 17:30 | 3.81 | 184 | 6740 (2009) | 101 (2012) | 814 | 101 | 111 | 159 | 238 | 375 | 872 | 894 | 1150 | 6740 |
| 2026-05-08 16:30 | 3.82 | 186 | 6740 (2009) | 101 (2012) | 814 | 101 | 111 | 159 | 238 | 375 | 872 | 894 | 1150 | 6740 |
| 2026-05-08 15:30 | 3.82 | 186 | 6740 (2009) | 101 (2012) | 814 | 101 | 111 | 159 | 238 | 375 | 872 | 894 | 1150 | 6740 |
| 2026-05-08 14:30 | 3.82 | 186 | 6740 (2009) | 101 (2012) | 814 | 101 | 111 | 159 | 238 | 375 | 872 | 894 | 1150 | 6740 |
| 2026-05-08 13:30 | 3.82 | 186 | 6740 (2009) | 101 (2012) | 814 | 101 | 111 | 159 | 238 | 375 | 872 | 894 | 1150 | 6740 |
| 2026-05-08 12:30 | 3.82 | 186 | 6740 (2009) | 101 (2012) | 814 | 101 | 111 | 159 | 238 | 375 | 872 | 894 | 1150 | 6740 |
| 2026-05-08 11:30 | 3.83 | 188 | 6740 (2009) | 101 (2012) | 814 | 101 | 111 | 159 | 238 | 375 | 872 | 894 | 1150 | 6740 |
| 2026-05-08 10:30 | 3.83 | 188 | 6740 (2009) | 101 (2012) | 814 | 101 | 111 | 159 | 238 | 375 | 872 | 894 | 1150 | 6740 |
| 2026-05-08 09:30 | 3.83 | 188 | 6740 (2009) | 101 (2012) | 814 | 101 | 111 | 159 | 238 | 375 | 872 | 894 | 1150 | 6740 |
| 2026-05-08 08:30 | 3.83 | 188 | 6740 (2009) | 101 (2012) | 814 | 101 | 111 | 159 | 238 | 375 | 872 | 894 | 1150 | 6740 |
| 2026-05-08 07:30 | 3.84 | 191 | 6740 (2009) | 101 (2012) | 814 | 101 | 111 | 159 | 238 | 375 | 872 | 894 | 1150 | 6740 |
| 2026-05-08 06:30 | 3.84 | 191 | 6740 (2009) | 101 (2012) | 814 | 101 | 111 | 159 | 238 | 375 | 872 | 894 | 1150 | 6740 |
| 2026-05-08 05:30 | 3.84 | 191 | 6740 (2009) | 101 (2012) | 814 | 101 | 111 | 159 | 238 | 375 | 872 | 894 | 1150 | 6740 |
| 2026-05-08 04:30 | 3.85 | 193 | 6740 (2009) | 101 (2012) | 814 | 101 | 111 | 159 | 238 | 375 | 872 | 894 | 1150 | 6740 |
| 2026-05-08 03:30 | 3.85 | 193 | 6740 (2009) | 101 (2012) | 814 | 101 | 111 | 159 | 238 | 375 | 872 | 894 | 1150 | 6740 |
| 2026-05-08 02:30 | 3.86 | 196 | 6740 (2009) | 101 (2012) | 814 | 101 | 111 | 159 | 238 | 375 | 872 | 894 | 1150 | 6740 |
| 2026-05-08 01:30 | 3.86 | 196 | 6740 (2009) | 101 (2012) | 814 | 101 | 111 | 159 | 238 | 375 | 872 | 894 | 1150 | 6740 |
| 2026-05-08 00:30 | 3.86 | 196 | 6740 (2009) | 101 (2012) | 814 | 101 | 111 | 159 | 238 | 375 | 872 | 894 | 1150 | 6740 |
| 2026-05-07 23:30 | 3.87 | 198 | 6740 (2009) | 101 (2012) | 814 | 101 | 111 | 159 | 238 | 375 | 872 | 894 | 1150 | 6740 |
| 2026-05-07 22:30 | 3.87 | 198 | 1350 (2022) | 100 (2012) | 485 | 100 | 115 | 173 | 221 | 377 | 822 | 854 | 937 | 1350 |
| 2026-05-07 21:30 | 3.88 | 201 | 1350 (2022) | 100 (2012) | 485 | 100 | 115 | 173 | 221 | 377 | 822 | 854 | 937 | 1350 |
| 2026-05-07 20:30 | 3.88 | 201 | 1350 (2022) | 100 (2012) | 485 | 100 | 115 | 173 | 221 | 377 | 822 | 854 | 937 | 1350 |
| 2026-05-07 19:30 | 3.88 | 201 | 1350 (2022) | 100 (2012) | 485 | 100 | 115 | 173 | 221 | 377 | 822 | 854 | 937 | 1350 |
| 2026-05-07 18:30 | 3.89 | 203 | 1350 (2022) | 100 (2012) | 485 | 100 | 115 | 173 | 221 | 377 | 822 | 854 | 937 | 1350 |
| 2026-05-07 17:30 | 3.88 | 201 | 1350 (2022) | 100 (2012) | 485 | 100 | 115 | 173 | 221 | 377 | 822 | 854 | 937 | 1350 |
| 2026-05-07 16:30 | 3.90 | 206 | 1350 (2022) | 100 (2012) | 485 | 100 | 115 | 173 | 221 | 377 | 822 | 854 | 937 | 1350 |
| 2026-05-07 15:30 | 3.90 | 206 | 1350 (2022) | 100 (2012) | 485 | 100 | 115 | 173 | 221 | 377 | 822 | 854 | 937 | 1350 |
| 2026-05-07 14:30 | 3.91 | 208 | 1350 (2022) | 100 (2012) | 485 | 100 | 115 | 173 | 221 | 377 | 822 | 854 | 937 | 1350 |
| 2026-05-07 13:30 | 3.92 | 211 | 1350 (2022) | 100 (2012) | 485 | 100 | 115 | 173 | 221 | 377 | 822 | 854 | 937 | 1350 |
| 2026-05-07 12:30 | 3.92 | 211 | 1350 (2022) | 100 (2012) | 485 | 100 | 115 | 173 | 221 | 377 | 822 | 854 | 937 | 1350 |
| 2026-05-07 11:30 | 3.93 | 214 | 1350 (2022) | 100 (2012) | 485 | 100 | 115 | 173 | 221 | 377 | 822 | 854 | 937 | 1350 |
| 2026-05-07 10:30 | 3.93 | 214 | 1350 (2022) | 100 (2012) | 485 | 100 | 115 | 173 | 221 | 377 | 822 | 854 | 937 | 1350 |
| 2026-05-07 09:30 | 3.94 | 217 | 1350 (2022) | 100 (2012) | 485 | 100 | 115 | 173 | 221 | 377 | 822 | 854 | 937 | 1350 |
| 2026-05-07 08:30 | 3.94 | 217 | 1350 (2022) | 100 (2012) | 485 | 100 | 115 | 173 | 221 | 377 | 822 | 854 | 937 | 1350 |
| 2026-05-07 07:30 | 3.96 | 220 | 1350 (2022) | 100 (2012) | 485 | 100 | 115 | 173 | 221 | 377 | 822 | 854 | 937 | 1350 |
| 2026-05-07 06:30 | 3.96 | 220 | 1350 (2022) | 100 (2012) | 485 | 100 | 115 | 173 | 221 | 377 | 822 | 854 | 937 | 1350 |
| 2026-05-07 05:30 | 3.97 | 224 | 1350 (2022) | 100 (2012) | 485 | 100 | 115 | 173 | 221 | 377 | 822 | 854 | 937 | 1350 |
| 2026-05-07 04:30 | 3.97 | 224 | 1350 (2022) | 100 (2012) | 485 | 100 | 115 | 173 | 221 | 377 | 822 | 854 | 937 | 1350 |
| 2026-05-07 03:30 | 3.98 | 227 | 1350 (2022) | 100 (2012) | 485 | 100 | 115 | 173 | 221 | 377 | 822 | 854 | 937 | 1350 |
| 2026-05-07 02:30 | 3.99 | 230 | 1350 (2022) | 100 (2012) | 485 | 100 | 115 | 173 | 221 | 377 | 822 | 854 | 937 | 1350 |
| 2026-05-07 01:30 | 3.99 | 230 | 1350 (2022) | 100 (2012) | 485 | 100 | 115 | 173 | 221 | 377 | 822 | 854 | 937 | 1350 |
| 2026-05-07 00:30 | 4.00 | 234 | 1350 (2022) | 100 (2012) | 485 | 100 | 115 | 173 | 221 | 377 | 822 | 854 | 937 | 1350 |
| 2026-05-06 23:30 | 4.01 | 237 | 1350 (2022) | 100 (2012) | 485 | 100 | 115 | 173 | 221 | 377 | 822 | 854 | 937 | 1350 |
| 2026-05-06 22:30 | 4.01 | 237 | 2810 (2022) | 97 (2012) | 607 | 97 | 122 | 192 | 222 | 451 | 751 | 927 | 1330 | 2810 |
| 2026-05-06 21:30 | 4.02 | 241 | 2810 (2022) | 97 (2012) | 607 | 97 | 122 | 192 | 222 | 451 | 751 | 927 | 1330 | 2810 |
| 2026-05-06 20:30 | 4.03 | 244 | 2810 (2022) | 97 (2012) | 607 | 97 | 122 | 192 | 222 | 451 | 751 | 927 | 1330 | 2810 |
| 2026-05-06 19:30 | 4.03 | 244 | 2810 (2022) | 97 (2012) | 607 | 97 | 122 | 192 | 222 | 451 | 751 | 927 | 1330 | 2810 |
| 2026-05-06 18:30 | 4.03 | 244 | 2810 (2022) | 97 (2012) | 607 | 97 | 122 | 192 | 222 | 451 | 751 | 927 | 1330 | 2810 |
| 2026-05-06 17:30 | 4.04 | 248 | 2810 (2022) | 97 (2012) | 607 | 97 | 122 | 192 | 222 | 451 | 751 | 927 | 1330 | 2810 |
| 2026-05-06 16:30 | 4.04 | 248 | 2810 (2022) | 97 (2012) | 607 | 97 | 122 | 192 | 222 | 451 | 751 | 927 | 1330 | 2810 |
| 2026-05-06 15:30 | 4.05 | 252 | 2810 (2022) | 97 (2012) | 607 | 97 | 122 | 192 | 222 | 451 | 751 | 927 | 1330 | 2810 |
| 2026-05-06 14:30 | 4.04 | 248 | 2810 (2022) | 97 (2012) | 607 | 97 | 122 | 192 | 222 | 451 | 751 | 927 | 1330 | 2810 |
| 2026-05-06 13:30 | 4.03 | 244 | 2810 (2022) | 97 (2012) | 607 | 97 | 122 | 192 | 222 | 451 | 751 | 927 | 1330 | 2810 |
| 2026-05-06 12:30 | 4.02 | 241 | 2810 (2022) | 97 (2012) | 607 | 97 | 122 | 192 | 222 | 451 | 751 | 927 | 1330 | 2810 |
| 2026-05-06 11:30 | 4.02 | 241 | 2810 (2022) | 97 (2012) | 607 | 97 | 122 | 192 | 222 | 451 | 751 | 927 | 1330 | 2810 |
| 2026-05-06 10:30 | 4.02 | 241 | 2810 (2022) | 97 (2012) | 607 | 97 | 122 | 192 | 222 | 451 | 751 | 927 | 1330 | 2810 |
| 2026-05-06 09:30 | 4.02 | 241 | 2810 (2022) | 97 (2012) | 607 | 97 | 122 | 192 | 222 | 451 | 751 | 927 | 1330 | 2810 |
| 2026-05-06 08:30 | 4.02 | 241 | 2810 (2022) | 97 (2012) | 607 | 97 | 122 | 192 | 222 | 451 | 751 | 927 | 1330 | 2810 |
| 2026-05-06 07:30 | 4.00 | 234 | 2810 (2022) | 97 (2012) | 607 | 97 | 122 | 192 | 222 | 451 | 751 | 927 | 1330 | 2810 |
| 2026-05-06 06:30 | 3.99 | 230 | 2810 (2022) | 97 (2012) | 607 | 97 | 122 | 192 | 222 | 451 | 751 | 927 | 1330 | 2810 |
| 2026-05-06 05:30 | 3.98 | 227 | 2810 (2022) | 97 (2012) | 607 | 97 | 122 | 192 | 222 | 451 | 751 | 927 | 1330 | 2810 |
| 2026-05-06 04:30 | 3.96 | 220 | 2810 (2022) | 97 (2012) | 607 | 97 | 122 | 192 | 222 | 451 | 751 | 927 | 1330 | 2810 |
| 2026-05-06 03:30 | 3.93 | 214 | 2810 (2022) | 97 (2012) | 607 | 97 | 122 | 192 | 222 | 451 | 751 | 927 | 1330 | 2810 |
| 2026-05-06 02:30 | 3.92 | 211 | 2810 (2022) | 97 (2012) | 607 | 97 | 122 | 192 | 222 | 451 | 751 | 927 | 1330 | 2810 |
| 2026-05-06 01:30 | 3.90 | 206 | 2810 (2022) | 97 (2012) | 607 | 97 | 122 | 192 | 222 | 451 | 751 | 927 | 1330 | 2810 |
| 2026-05-06 00:30 | 3.90 | 206 | 2810 (2022) | 97 (2012) | 607 | 97 | 122 | 192 | 222 | 451 | 751 | 927 | 1330 | 2810 |
| 2026-05-05 23:30 | 3.89 | 203 | 2810 (2022) | 97 (2012) | 607 | 97 | 122 | 192 | 222 | 451 | 751 | 927 | 1330 | 2810 |
| 2026-05-05 22:30 | 3.89 | 203 | 3560 (2017) | 99 (2012) | 811 | 99 | 128 | 223 | 224 | 510 | 983 | 1200 | 2760 | 3560 |
| 2026-05-05 21:30 | 3.88 | 201 | 3560 (2017) | 99 (2012) | 811 | 99 | 128 | 223 | 224 | 510 | 983 | 1200 | 2760 | 3560 |
| 2026-05-05 20:30 | 3.86 | 196 | 3560 (2017) | 99 (2012) | 811 | 99 | 128 | 223 | 224 | 510 | 983 | 1200 | 2760 | 3560 |
| 2026-05-05 19:30 | 3.86 | 196 | 3560 (2017) | 99 (2012) | 811 | 99 | 128 | 223 | 224 | 510 | 983 | 1200 | 2760 | 3560 |
| 2026-05-05 18:30 | 3.86 | 196 | 3560 (2017) | 99 (2012) | 811 | 99 | 128 | 223 | 224 | 510 | 983 | 1200 | 2760 | 3560 |
| 2026-05-05 17:30 | 3.85 | 193 | 3560 (2017) | 99 (2012) | 811 | 99 | 128 | 223 | 224 | 510 | 983 | 1200 | 2760 | 3560 |
| 2026-05-05 16:30 | 3.85 | 193 | 3560 (2017) | 99 (2012) | 811 | 99 | 128 | 223 | 224 | 510 | 983 | 1200 | 2760 | 3560 |
| 2026-05-05 15:30 | 3.85 | 193 | 3560 (2017) | 99 (2012) | 811 | 99 | 128 | 223 | 224 | 510 | 983 | 1200 | 2760 | 3560 |
| 2026-05-05 14:30 | 3.85 | 193 | 3560 (2017) | 99 (2012) | 811 | 99 | 128 | 223 | 224 | 510 | 983 | 1200 | 2760 | 3560 |
| 2026-05-05 13:30 | 3.86 | 196 | 3560 (2017) | 99 (2012) | 811 | 99 | 128 | 223 | 224 | 510 | 983 | 1200 | 2760 | 3560 |
| 2026-05-05 12:30 | 3.86 | 196 | 3560 (2017) | 99 (2012) | 811 | 99 | 128 | 223 | 224 | 510 | 983 | 1200 | 2760 | 3560 |
| 2026-05-05 11:30 | 3.85 | 193 | 3560 (2017) | 99 (2012) | 811 | 99 | 128 | 223 | 224 | 510 | 983 | 1200 | 2760 | 3560 |
| 2026-05-05 10:30 | 3.86 | 196 | 3560 (2017) | 99 (2012) | 811 | 99 | 128 | 223 | 224 | 510 | 983 | 1200 | 2760 | 3560 |
| 2026-05-05 09:30 | 3.87 | 198 | 3560 (2017) | 99 (2012) | 811 | 99 | 128 | 223 | 224 | 510 | 983 | 1200 | 2760 | 3560 |
| 2026-05-05 08:30 | 3.87 | 198 | 3560 (2017) | 99 (2012) | 811 | 99 | 128 | 223 | 224 | 510 | 983 | 1200 | 2760 | 3560 |
| 2026-05-05 07:30 | 3.87 | 198 | 3560 (2017) | 99 (2012) | 811 | 99 | 128 | 223 | 224 | 510 | 983 | 1200 | 2760 | 3560 |
| 2026-05-05 06:30 | 3.86 | 196 | 3560 (2017) | 99 (2012) | 811 | 99 | 128 | 223 | 224 | 510 | 983 | 1200 | 2760 | 3560 |
| 2026-05-05 05:30 | 3.84 | 191 | 3560 (2017) | 99 (2012) | 811 | 99 | 128 | 223 | 224 | 510 | 983 | 1200 | 2760 | 3560 |
| 2026-05-05 04:30 | 3.85 | 193 | 3560 (2017) | 99 (2012) | 811 | 99 | 128 | 223 | 224 | 510 | 983 | 1200 | 2760 | 3560 |
| 2026-05-05 03:30 | 3.84 | 191 | 3560 (2017) | 99 (2012) | 811 | 99 | 128 | 223 | 224 | 510 | 983 | 1200 | 2760 | 3560 |
| 2026-05-05 02:30 | 3.85 | 193 | 3560 (2017) | 99 (2012) | 811 | 99 | 128 | 223 | 224 | 510 | 983 | 1200 | 2760 | 3560 |
| 2026-05-05 01:30 | 3.86 | 196 | 3560 (2017) | 99 (2012) | 811 | 99 | 128 | 223 | 224 | 510 | 983 | 1200 | 2760 | 3560 |
| 2026-05-05 00:30 | 3.85 | 193 | 3560 (2017) | 99 (2012) | 811 | 99 | 128 | 223 | 224 | 510 | 983 | 1200 | 2760 | 3560 |
| 2026-05-04 23:30 | 3.86 | 196 | 3560 (2017) | 99 (2012) | 811 | 99 | 128 | 223 | 224 | 510 | 983 | 1200 | 2760 | 3560 |
| 2026-05-04 22:30 | 3.86 | 196 | 4720 (2017) | 101 (2012) | 1050 | 101 | 131 | 228 | 268 | 537 | 1260 | 1610 | 4430 | 4720 |
| 2026-05-04 21:30 | 3.86 | 196 | 4720 (2017) | 101 (2012) | 1050 | 101 | 131 | 228 | 268 | 537 | 1260 | 1610 | 4430 | 4720 |
| 2026-05-04 20:30 | 3.86 | 196 | 4720 (2017) | 101 (2012) | 1050 | 101 | 131 | 228 | 268 | 537 | 1260 | 1610 | 4430 | 4720 |
| 2026-05-04 19:30 | 3.87 | 198 | 4720 (2017) | 101 (2012) | 1050 | 101 | 131 | 228 | 268 | 537 | 1260 | 1610 | 4430 | 4720 |
| 2026-05-04 18:30 | 3.87 | 198 | 4720 (2017) | 101 (2012) | 1050 | 101 | 131 | 228 | 268 | 537 | 1260 | 1610 | 4430 | 4720 |
| 2026-05-04 17:30 | 3.88 | 201 | 4720 (2017) | 101 (2012) | 1050 | 101 | 131 | 228 | 268 | 537 | 1260 | 1610 | 4430 | 4720 |
| 2026-05-04 16:30 | 3.88 | 201 | 4720 (2017) | 101 (2012) | 1050 | 101 | 131 | 228 | 268 | 537 | 1260 | 1610 | 4430 | 4720 |
| 2026-05-04 15:30 | 3.88 | 201 | 4720 (2017) | 101 (2012) | 1050 | 101 | 131 | 228 | 268 | 537 | 1260 | 1610 | 4430 | 4720 |
| 2026-05-04 14:30 | 3.89 | 203 | 4720 (2017) | 101 (2012) | 1050 | 101 | 131 | 228 | 268 | 537 | 1260 | 1610 | 4430 | 4720 |
| 2026-05-04 13:30 | 3.89 | 203 | 4720 (2017) | 101 (2012) | 1050 | 101 | 131 | 228 | 268 | 537 | 1260 | 1610 | 4430 | 4720 |
| 2026-05-04 12:30 | 3.89 | 203 | 4720 (2017) | 101 (2012) | 1050 | 101 | 131 | 228 | 268 | 537 | 1260 | 1610 | 4430 | 4720 |
| 2026-05-04 11:30 | 3.89 | 203 | 4720 (2017) | 101 (2012) | 1050 | 101 | 131 | 228 | 268 | 537 | 1260 | 1610 | 4430 | 4720 |
| 2026-05-04 10:30 | 3.90 | 206 | 4720 (2017) | 101 (2012) | 1050 | 101 | 131 | 228 | 268 | 537 | 1260 | 1610 | 4430 | 4720 |
| 2026-05-04 09:30 | 3.90 | 206 | 4720 (2017) | 101 (2012) | 1050 | 101 | 131 | 228 | 268 | 537 | 1260 | 1610 | 4430 | 4720 |
| 2026-05-04 08:30 | 3.90 | 206 | 4720 (2017) | 101 (2012) | 1050 | 101 | 131 | 228 | 268 | 537 | 1260 | 1610 | 4430 | 4720 |
| 2026-05-04 07:30 | 3.91 | 208 | 4720 (2017) | 101 (2012) | 1050 | 101 | 131 | 228 | 268 | 537 | 1260 | 1610 | 4430 | 4720 |
| 2026-05-04 06:30 | 3.91 | 208 | 4720 (2017) | 101 (2012) | 1050 | 101 | 131 | 228 | 268 | 537 | 1260 | 1610 | 4430 | 4720 |
| 2026-05-04 05:30 | 3.91 | 208 | 4720 (2017) | 101 (2012) | 1050 | 101 | 131 | 228 | 268 | 537 | 1260 | 1610 | 4430 | 4720 |
| 2026-05-04 04:30 | 3.91 | 208 | 4720 (2017) | 101 (2012) | 1050 | 101 | 131 | 228 | 268 | 537 | 1260 | 1610 | 4430 | 4720 |
| 2026-05-04 03:30 | 3.92 | 211 | 4720 (2017) | 101 (2012) | 1050 | 101 | 131 | 228 | 268 | 537 | 1260 | 1610 | 4430 | 4720 |
| 2026-05-04 02:30 | 3.92 | 211 | 4720 (2017) | 101 (2012) | 1050 | 101 | 131 | 228 | 268 | 537 | 1260 | 1610 | 4430 | 4720 |
| 2026-05-04 01:30 | 3.92 | 211 | 4720 (2017) | 101 (2012) | 1050 | 101 | 131 | 228 | 268 | 537 | 1260 | 1610 | 4430 | 4720 |
| 2026-05-04 00:30 | 3.92 | 211 | 4720 (2017) | 101 (2012) | 1050 | 101 | 131 | 228 | 268 | 537 | 1260 | 1610 | 4430 | 4720 |
| 2026-05-03 23:30 | 3.93 | 214 | 4720 (2017) | 101 (2012) | 1050 | 101 | 131 | 228 | 268 | 537 | 1260 | 1610 | 4430 | 4720 |
| 2026-05-03 22:30 | 3.93 | 214 | 3180 (2013) | 104 (2012) | 726 | 104 | 133 | 233 | 333 | 449 | 1040 | 1280 | 1770 | 3180 |
| 2026-05-03 21:30 | 3.93 | 214 | 3180 (2013) | 104 (2012) | 726 | 104 | 133 | 233 | 333 | 449 | 1040 | 1280 | 1770 | 3180 |
| 2026-05-03 20:30 | 3.93 | 214 | 3180 (2013) | 104 (2012) | 726 | 104 | 133 | 233 | 333 | 449 | 1040 | 1280 | 1770 | 3180 |
| 2026-05-03 19:30 | 3.94 | 217 | 3180 (2013) | 104 (2012) | 726 | 104 | 133 | 233 | 333 | 449 | 1040 | 1280 | 1770 | 3180 |
| 2026-05-03 18:30 | 3.94 | 217 | 3180 (2013) | 104 (2012) | 726 | 104 | 133 | 233 | 333 | 449 | 1040 | 1280 | 1770 | 3180 |
| 2026-05-03 17:30 | 3.96 | 220 | 3180 (2013) | 104 (2012) | 726 | 104 | 133 | 233 | 333 | 449 | 1040 | 1280 | 1770 | 3180 |
| 2026-05-03 16:30 | 3.94 | 217 | 3180 (2013) | 104 (2012) | 726 | 104 | 133 | 233 | 333 | 449 | 1040 | 1280 | 1770 | 3180 |
| 2026-05-03 15:30 | 3.96 | 220 | 3180 (2013) | 104 (2012) | 726 | 104 | 133 | 233 | 333 | 449 | 1040 | 1280 | 1770 | 3180 |
| 2026-05-03 14:30 | 3.96 | 220 | 3180 (2013) | 104 (2012) | 726 | 104 | 133 | 233 | 333 | 449 | 1040 | 1280 | 1770 | 3180 |
| 2026-05-03 13:30 | 3.97 | 224 | 3180 (2013) | 104 (2012) | 726 | 104 | 133 | 233 | 333 | 449 | 1040 | 1280 | 1770 | 3180 |
| 2026-05-03 12:30 | 3.98 | 227 | 3180 (2013) | 104 (2012) | 726 | 104 | 133 | 233 | 333 | 449 | 1040 | 1280 | 1770 | 3180 |
| 2026-05-03 11:30 | 3.98 | 227 | 3180 (2013) | 104 (2012) | 726 | 104 | 133 | 233 | 333 | 449 | 1040 | 1280 | 1770 | 3180 |
| 2026-05-03 10:30 | 3.98 | 227 | 3180 (2013) | 104 (2012) | 726 | 104 | 133 | 233 | 333 | 449 | 1040 | 1280 | 1770 | 3180 |
| 2026-05-03 09:30 | 3.98 | 227 | 3180 (2013) | 104 (2012) | 726 | 104 | 133 | 233 | 333 | 449 | 1040 | 1280 | 1770 | 3180 |
| 2026-05-03 08:30 | 3.98 | 227 | 3180 (2013) | 104 (2012) | 726 | 104 | 133 | 233 | 333 | 449 | 1040 | 1280 | 1770 | 3180 |
| 2026-05-03 07:30 | 3.99 | 230 | 3180 (2013) | 104 (2012) | 726 | 104 | 133 | 233 | 333 | 449 | 1040 | 1280 | 1770 | 3180 |
| 2026-05-03 06:30 | 3.99 | 230 | 3180 (2013) | 104 (2012) | 726 | 104 | 133 | 233 | 333 | 449 | 1040 | 1280 | 1770 | 3180 |
| 2026-05-03 05:30 | 3.99 | 230 | 3180 (2013) | 104 (2012) | 726 | 104 | 133 | 233 | 333 | 449 | 1040 | 1280 | 1770 | 3180 |
| 2026-05-03 04:30 | 4.00 | 234 | 3180 (2013) | 104 (2012) | 726 | 104 | 133 | 233 | 333 | 449 | 1040 | 1280 | 1770 | 3180 |
| 2026-05-03 03:30 | 4.00 | 234 | 3180 (2013) | 104 (2012) | 726 | 104 | 133 | 233 | 333 | 449 | 1040 | 1280 | 1770 | 3180 |
| 2026-05-03 02:30 | 4.01 | 237 | 3180 (2013) | 104 (2012) | 726 | 104 | 133 | 233 | 333 | 449 | 1040 | 1280 | 1770 | 3180 |
| 2026-05-03 01:30 | 4.01 | 237 | 3180 (2013) | 104 (2012) | 726 | 104 | 133 | 233 | 333 | 449 | 1040 | 1280 | 1770 | 3180 |
| 2026-05-03 00:30 | 4.01 | 237 | 3180 (2013) | 104 (2012) | 726 | 104 | 133 | 233 | 333 | 449 | 1040 | 1280 | 1770 | 3180 |
| 2026-05-02 23:30 | 4.01 | 237 | 3180 (2013) | 104 (2012) | 726 | 104 | 133 | 233 | 333 | 449 | 1040 | 1280 | 1770 | 3180 |
A total of 181 rows are displayed for years 2007 through 2025.